| time (UTC) | temp C | wind direction | speed KPH | gust KPH | rain 1hr cm | rain 24hr cm | rain mn cm | humidity % | barometer mb |
| 20260507062042 | 7 | 0 | 0.0 | 0.0 | 0.00 | 0.56 | 0.08 | 97 | 1014.2 |
| 20260507061559 | 7 | 0 | 0.0 | 0.0 | 0.00 | 0.56 | 0.08 | 97 | 1014.1 |
| 20260507061043 | 7 | 0 | 0.0 | 0.0 | 0.00 | 0.56 | 0.08 | 97 | 1014.0 |
| 20260507060544 | 7 | 0 | 0.0 | 0.0 | 0.00 | 0.56 | 0.08 | 97 | 1014.1 |
| 20260507060052 | 7 | 0 | 0.0 | 0.0 | 0.00 | 0.56 | 0.08 | 97 | 1014.0 |
| 20260507055542 | 7 | 0 | 0.0 | 0.0 | 0.00 | 0.61 | 0.08 | 97 | 1013.9 |
| 20260507055042 | 7 | 0 | 0.0 | 0.0 | 0.00 | 0.61 | 0.08 | 97 | 1014.0 |
| 20260507054551 | 7 | 0 | 0.0 | 0.0 | 0.00 | 0.61 | 0.08 | 97 | 1013.9 |
| 20260507054042 | 7 | 0 | 0.0 | 4.8 | 0.00 | 0.61 | 0.08 | 97 | 1013.8 |
| 20260507053542 | 7 | 0 | 0.0 | 4.8 | 0.00 | 0.61 | 0.08 | 97 | 1013.8 |
| 20260507053052 | 7 | 0 | 0.0 | 1.6 | 0.00 | 0.61 | 0.08 | 97 | 1013.7 |
| 20260507052542 | 7 | 0 | 0.0 | 0.0 | 0.00 | 0.61 | 0.08 | 97 | 1013.7 |
| 20260507052045 | 7 | 0 | 0.0 | 0.0 | 0.00 | 0.61 | 0.08 | 97 | 1013.7 |
| 20260507051558 | 7 | 0 | 0.0 | 0.0 | 0.00 | 0.61 | 0.08 | 97 | 1013.5 |
| 20260507051042 | 7 | 0 | 0.0 | 0.0 | 0.00 | 0.61 | 0.08 | 97 | 1013.5 |
| 20260507050546 | 7 | 0 | 0.0 | 0.0 | 0.00 | 0.61 | 0.08 | 97 | 1013.4 |
| 20260507050057 | 7 | 0 | 0.0 | 0.0 | 0.00 | 0.61 | 0.08 | 97 | 1013.3 |
| 20260507045542 | 7 | 0 | 0.0 | 0.0 | 0.00 | 0.64 | 0.08 | 97 | 1013.3 |
| 20260507045043 | 7 | 0 | 0.0 | 0.0 | 0.00 | 0.64 | 0.08 | 97 | 1013.3 |
| 20260507044609 | 7 | 0 | 0.0 | 0.0 | 0.00 | 0.64 | 0.08 | 97 | 1013.2 |
| 20260507044047 | 7 | 0 | 0.0 | 0.0 | 0.00 | 0.64 | 0.08 | 97 | 1013.1 |
| 20260507043547 | 7 | 0 | 0.0 | 0.0 | 0.00 | 0.64 | 0.08 | 97 | 1013.0 |
| 20260507043052 | 7 | 0 | 0.0 | 0.0 | 0.00 | 0.64 | 0.08 | 97 | 1013.0 |
| 20260507042547 | 7 | 0 | 0.0 | 1.6 | 0.00 | 0.64 | 0.08 | 97 | 1012.9 |
| 20260507042047 | 7 | 0 | 0.0 | 1.6 | 0.00 | 0.64 | 0.08 | 97 | 1012.9 |
| 20260507041551 | 7 | 0 | 0.0 | 0.0 | 0.00 | 0.64 | 0.08 | 97 | 1012.9 |
| 20260507041050 | 7 | 0 | 0.0 | 0.0 | 0.00 | 0.64 | 0.08 | 97 | 1013.0 |
| 20260507040547 | 7 | 0 | 0.0 | 0.0 | 0.00 | 0.64 | 0.08 | 97 | 1013.0 |
| 20260507040058 | 7 | 0 | 0.0 | 0.0 | 0.00 | 0.64 | 0.08 | 97 | 1012.8 |
| 20260507035547 | 7 | 0 | 0.0 | 0.0 | 0.00 | 0.66 | 0.08 | 97 | 1012.8 |
| 20260507035047 | 7 | 0 | 0.0 | 0.0 | 0.00 | 0.66 | 0.08 | 97 | 1012.8 |
| 20260507034549 | 7 | 0 | 0.0 | 0.0 | 0.00 | 0.66 | 0.08 | 97 | 1012.7 |
| 20260507034047 | 7 | 0 | 0.0 | 0.0 | 0.00 | 0.66 | 0.08 | 97 | 1012.8 |
| 20260507033547 | 7 | 0 | 0.0 | 0.0 | 0.00 | 0.66 | 0.08 | 97 | 1012.8 |
| 20260507033055 | 7 | 0 | 0.0 | 0.0 | 0.00 | 0.66 | 0.08 | 97 | 1012.7 |
| 20260507032547 | 7 | 0 | 0.0 | 0.0 | 0.00 | 0.66 | 0.08 | 97 | 1012.7 |
| 20260507032050 | 7 | 0 | 0.0 | 0.0 | 0.00 | 0.66 | 0.08 | 97 | 1012.7 |
| 20260507031557 | 7 | 0 | 0.0 | 0.0 | 0.00 | 0.66 | 0.08 | 97 | 1012.7 |
| 20260507031049 | 7 | 0 | 0.0 | 0.0 | 0.00 | 0.66 | 0.08 | 97 | 1012.6 |
| 20260507030546 | 7 | 0 | 0.0 | 0.0 | 0.00 | 0.66 | 0.08 | 97 | 1012.5 |
| 20260507030054 | 7 | 0 | 0.0 | 0.0 | 0.00 | 0.66 | 0.08 | 97 | 1012.5 |
| 20260507025549 | 7 | 0 | 0.0 | 0.0 | 0.00 | 0.74 | 0.08 | 97 | 1012.5 |
| 20260507025050 | 7 | 0 | 0.0 | 0.0 | 0.00 | 0.74 | 0.08 | 97 | 1012.4 |
| 20260507024614 | 7 | 0 | 0.0 | 0.0 | 0.00 | 0.74 | 0.08 | 97 | 1012.5 |
| 20260507024047 | 7 | 0 | 0.0 | 0.0 | 0.00 | 0.74 | 0.08 | 97 | 1012.5 |
| 20260507023552 | 7 | 0 | 0.0 | 0.0 | 0.00 | 0.74 | 0.08 | 97 | 1012.5 |
| 20260507023055 | 7 | 0 | 0.0 | 0.0 | 0.00 | 0.74 | 0.08 | 97 | 1012.4 |
| 20260507022549 | 7 | 0 | 0.0 | 0.0 | 0.00 | 0.74 | 0.08 | 97 | 1012.4 |
| 20260507022043 | 7 | 0 | 0.0 | 0.0 | 0.00 | 0.74 | 0.08 | 97 | 1012.3 |
| 20260507021601 | 7 | 0 | 0.0 | 0.0 | 0.00 | 0.74 | 0.08 | 97 | 1012.3 |
| 20260507021046 | 7 | 0 | 0.0 | 0.0 | 0.00 | 0.74 | 0.08 | 97 | 1012.3 |
| 20260507020547 | 7 | 0 | 0.0 | 0.0 | 0.00 | 0.74 | 0.08 | 97 | 1012.4 |
| 20260507020107 | 7 | 0 | 0.0 | 0.0 | 0.03 | 0.74 | 0.08 | 97 | 1012.2 |
| 20260507015546 | 7 | 0 | 0.0 | 0.0 | 0.00 | 0.79 | 0.05 | 97 | 1012.3 |
| 20260507015047 | 7 | 0 | 0.0 | 0.0 | 0.00 | 0.79 | 0.05 | 97 | 1012.2 |
| 20260507014607 | 7 | 0 | 0.0 | 0.0 | 0.00 | 0.79 | 0.05 | 97 | 1012.2 |
| 20260507014047 | 7 | 0 | 0.0 | 0.0 | 0.00 | 0.79 | 0.05 | 97 | 1012.1 |
| 20260507013549 | 7 | 0 | 0.0 | 0.0 | 0.00 | 0.79 | 0.05 | 97 | 1012.1 |
| 20260507013054 | 7 | 0 | 0.0 | 0.0 | 0.00 | 0.79 | 0.05 | 97 | 1012.2 |
| 20260507012546 | 7 | 0 | 0.0 | 0.0 | 0.03 | 0.79 | 0.05 | 97 | 1012.2 |
| 20260507012046 | 7 | 0 | 0.0 | 0.0 | 0.03 | 0.79 | 0.05 | 97 | 1012.1 |
| 20260507011549 | 7 | 0 | 0.0 | 0.0 | 0.03 | 0.79 | 0.05 | 97 | 1012.1 |
| 20260507011045 | 7 | 0 | 0.0 | 6.4 | 0.03 | 0.79 | 0.05 | 97 | 1012.1 |
| 20260507010546 | 7 | 0 | 0.0 | 6.4 | 0.03 | 0.79 | 0.05 | 97 | 1012.1 |
| 20260507010054 | 7 | 0 | 0.0 | 1.6 | 0.03 | 0.76 | 0.03 | 97 | 1012.1 |
| 20260507005546 | 7 | 0 | 0.0 | 1.6 | 0.03 | 0.94 | 0.03 | 97 | 1012.1 |
| 20260507005043 | 7 | 0 | 0.0 | 8.0 | 0.03 | 0.94 | 0.03 | 97 | 1012.0 |
| 20260507004557 | 7 | 0 | 0.0 | 8.0 | 0.03 | 0.94 | 0.03 | 97 | 1011.9 |
| 20260507004046 | 7 | 0 | 0.0 | 6.4 | 0.03 | 0.94 | 0.03 | 97 | 1012.0 |
| 20260507003542 | 7 | 0 | 0.0 | 0.0 | 0.03 | 0.94 | 0.03 | 97 | 1011.8 |
| 20260507003056 | 7 | 0 | 0.0 | 8.0 | 0.03 | 0.94 | 0.03 | 97 | 1011.9 |
| 20260507002547 | 7 | 0 | 0.0 | 8.0 | 0.00 | 0.91 | 0.00 | 97 | 1011.9 |
| 20260507002045 | 7 | 0 | 0.0 | 4.8 | 0.00 | 0.91 | 0.00 | 97 | 1011.9 |
| 20260507001558 | 7 | 0 | 0.0 | 4.8 | 0.00 | 0.91 | 0.00 | 97 | 1011.9 |
| 20260507001046 | 7 | 0 | 0.0 | 9.7 | 0.00 | 0.91 | 0.00 | 97 | 1011.9 |
| 20260507000547 | 7 | 0 | 0.0 | 9.7 | 0.00 | 0.91 | 0.00 | 97 | 1011.9 |
| 20260507000053 | 7 | 0 | 0.0 | 9.7 | 0.00 | 0.89 | 0.00 | 97 | 1012.0 |
| 20260506235546 | 7 | 0 | 0.0 | 0.0 | 0.00 | 1.02 | 0.00 | 97 | 1011.8 |
| 20260506235048 | 7 | 0 | 0.0 | 1.6 | 0.00 | 1.02 | 0.00 | 96 | 1011.8 |
| 20260506234601 | 7 | 0 | 0.0 | 3.2 | 0.00 | 1.02 | 0.00 | 97 | 1011.9 |
| 20260506234046 | 7 | 0 | 0.0 | 3.2 | 0.00 | 1.02 | 0.00 | 97 | 1011.7 |
| 20260506233549 | 7 | 0 | 0.0 | 3.2 | 0.00 | 1.02 | 0.00 | 97 | 1011.8 |
| 20260506233058 | 7 | 0 | 0.0 | 3.2 | 0.00 | 1.02 | 0.00 | 97 | 1011.8 |
| 20260506232546 | 7 | 0 | 0.0 | 3.2 | 0.00 | 1.02 | 0.00 | 97 | 1011.8 |
| 20260506232048 | 7 | 0 | 0.0 | 1.6 | 0.00 | 1.02 | 0.00 | 97 | 1011.7 |
| 20260506231559 | 7 | 0 | 0.0 | 1.6 | 0.00 | 1.02 | 0.00 | 97 | 1011.7 |
| 20260506231048 | 7 | 0 | 0.0 | 1.6 | 0.00 | 1.02 | 0.00 | 97 | 1011.8 |
| 20260506230546 | 7 | 0 | 0.0 | 1.6 | 0.00 | 1.02 | 0.00 | 97 | 1011.6 |
| 20260506230058 | 7 | 0 | 0.0 | 0.0 | 0.00 | 1.02 | 0.00 | 97 | 1011.6 |
| 20260506225547 | 7 | 0 | 0.0 | 3.2 | 0.00 | 1.22 | 0.00 | 97 | 1011.6 |
| 20260506225046 | 7 | 0 | 0.0 | 3.2 | 0.00 | 1.22 | 0.00 | 97 | 1011.6 |
| 20260506224556 | 7 | 0 | 0.0 | 0.0 | 0.00 | 1.22 | 0.00 | 97 | 1011.6 |
| 20260506224045 | 7 | 0 | 0.0 | 0.0 | 0.00 | 1.22 | 0.00 | 97 | 1011.5 |
| 20260506223544 | 7 | 0 | 0.0 | 0.0 | 0.00 | 1.22 | 0.00 | 97 | 1011.4 |
| 20260506223057 | 7 | 0 | 0.0 | 0.0 | 0.00 | 1.22 | 0.00 | 97 | 1011.4 |
| 20260506222546 | 7 | 0 | 0.0 | 0.0 | 0.00 | 1.22 | 0.00 | 97 | 1011.3 |
| 20260506222046 | 7 | 0 | 0.0 | 0.0 | 0.00 | 1.22 | 0.00 | 97 | 1011.3 |
| 20260506221554 | 7 | 0 | 0.0 | 6.4 | 0.00 | 1.22 | 0.00 | 97 | 1011.3 |
| 20260506221122 | 7 | 0 | 0.0 | 6.4 | 0.00 | 1.22 | 0.00 | 97 | 1011.3 |
| 20260506220547 | 7 | 0 | 0.0 | 6.4 | 0.00 | 1.22 | 0.00 | 97 | 1011.2 |
| 20260506220055 | 7 | 296 | 0.0 | 1.6 | 0.00 | 1.22 | 0.00 | 97 | 1011.3 |
| 20260506215546 | 7 | 0 | 0.0 | 0.0 | 0.00 | 1.35 | 1.22 | 97 | 1011.2 |
| 20260506215048 | 7 | 0 | 0.0 | 0.0 | 0.00 | 1.35 | 1.22 | 97 | 1011.0 |
| 20260506214553 | 7 | 0 | 0.0 | 0.0 | 0.00 | 1.35 | 1.22 | 97 | 1011.2 |
| 20260506214047 | 7 | 0 | 0.0 | 0.0 | 0.00 | 1.35 | 1.22 | 97 | 1011.1 |
| 20260506213546 | 7 | 0 | 0.0 | 0.0 | 0.00 | 1.35 | 1.22 | 97 | 1011.2 |
| 20260506213113 | 7 | 0 | 0.0 | 0.0 | 0.00 | 1.35 | 1.22 | 97 | 1011.1 |
| 20260506212546 | 7 | 0 | 0.0 | 0.0 | 0.00 | 1.35 | 1.22 | 97 | 1011.2 |
| 20260506212046 | 7 | 0 | 0.0 | 0.0 | 0.00 | 1.35 | 1.22 | 97 | 1011.2 |
| 20260506211604 | 7 | 0 | 0.0 | 0.0 | 0.00 | 1.35 | 1.22 | 97 | 1011.1 |
| 20260506211046 | 7 | 0 | 0.0 | 0.0 | 0.00 | 1.35 | 1.22 | 97 | 1011.2 |
| 20260506210545 | 7 | 0 | 0.0 | 0.0 | 0.00 | 1.35 | 1.22 | 97 | 1011.1 |
| 20260506210056 | 7 | 0 | 0.0 | 0.0 | 0.00 | 1.35 | 1.22 | 96 | 1011.0 |
| 20260506205545 | 7 | 0 | 0.0 | 0.0 | 0.00 | 1.45 | 1.22 | 97 | 1011.0 |
| 20260506205044 | 7 | 0 | 0.0 | 0.0 | 0.00 | 1.45 | 1.22 | 97 | 1011.1 |
| 20260506204556 | 7 | 0 | 0.0 | 0.0 | 0.00 | 1.45 | 1.22 | 97 | 1011.0 |
| 20260506204046 | 7 | 0 | 0.0 | 0.0 | 0.00 | 1.45 | 1.22 | 97 | 1011.0 |
| 20260506203548 | 7 | 0 | 0.0 | 0.0 | 0.00 | 1.45 | 1.22 | 97 | 1010.9 |
| 20260506203052 | 7 | 0 | 0.0 | 0.0 | 0.00 | 1.45 | 1.22 | 96 | 1010.9 |
| 20260506202547 | 7 | 0 | 0.0 | 0.0 | 0.00 | 1.45 | 1.22 | 96 | 1010.8 |
| 20260506202049 | 7 | 0 | 0.0 | 0.0 | 0.00 | 1.45 | 1.22 | 96 | 1010.9 |
| 20260506201601 | 7 | 0 | 0.0 | 0.0 | 0.00 | 1.45 | 1.22 | 96 | 1010.9 |
| 20260506201048 | 7 | 0 | 0.0 | 0.0 | 0.00 | 1.45 | 1.22 | 96 | 1010.8 |
| 20260506200546 | 7 | 0 | 0.0 | 0.0 | 0.00 | 1.45 | 1.22 | 96 | 1010.8 |
| 20260506200059 | 7 | 0 | 0.0 | 0.0 | 0.00 | 1.42 | 1.19 | 96 | 1010.8 |
| 20260506195547 | 7 | 0 | 0.0 | 1.6 | 0.00 | 1.52 | 1.19 | 96 | 1010.7 |
| 20260506195046 | 7 | 0 | 0.0 | 3.2 | 0.00 | 1.52 | 1.19 | 96 | 1010.7 |
| 20260506194609 | 7 | 0 | 0.0 | 3.2 | 0.00 | 1.52 | 1.19 | 96 | 1010.6 |
| 20260506194046 | 7 | 0 | 0.0 | 1.6 | 0.00 | 1.52 | 1.19 | 96 | 1010.6 |
| 20260506193547 | 7 | 0 | 0.0 | 6.4 | 0.00 | 1.52 | 1.19 | 96 | 1010.7 |
| 20260506193054 | 7 | 0 | 0.0 | 6.4 | 0.00 | 1.52 | 1.19 | 96 | 1010.5 |
| 20260506192551 | 7 | 0 | 0.0 | 6.4 | 0.00 | 1.52 | 1.19 | 96 | 1010.5 |
| 20260506192045 | 7 | 0 | 0.0 | 8.0 | 0.00 | 1.52 | 1.19 | 96 | 1010.4 |
| 20260506191557 | 7 | 0 | 0.0 | 8.0 | 0.00 | 1.52 | 1.19 | 96 | 1010.4 |
| 20260506191047 | 7 | 0 | 0.0 | 4.8 | 0.00 | 1.52 | 1.19 | 96 | 1010.2 |
| 20260506190549 | 7 | 0 | 0.0 | 3.2 | 0.00 | 1.52 | 1.19 | 96 | 1010.1 |
| 20260506190056 | 7 | 0 | 0.0 | 6.4 | 0.00 | 1.52 | 1.19 | 96 | 1010.0 |
| 20260506185546 | 7 | 0 | 0.0 | 6.4 | 0.00 | 1.55 | 1.19 | 96 | 1010.0 |
| 20260506185049 | 7 | 0 | 0.0 | 8.0 | 0.00 | 1.55 | 1.19 | 96 | 1010.0 |
| 20260506184604 | 7 | 0 | 0.0 | 8.0 | 0.00 | 1.55 | 1.19 | 96 | 1009.9 |
| 20260506184047 | 7 | 0 | 0.0 | 8.0 | 0.00 | 1.55 | 1.19 | 96 | 1009.9 |
| 20260506183546 | 7 | 0 | 0.0 | 9.7 | 0.00 | 1.55 | 1.19 | 96 | 1009.7 |
| 20260506183103 | 7 | 0 | 0.0 | 12.9 | 0.00 | 1.55 | 1.19 | 96 | 1009.7 |
| 20260506182545 | 7 | 338 | 0.0 | 12.9 | 0.00 | 1.55 | 1.19 | 96 | 1009.8 |
| 20260506182047 | 8 | 360 | 0.0 | 9.7 | 0.00 | 1.55 | 1.19 | 96 | 1009.7 |
| 20260506181559 | 8 | 0 | 0.0 | 9.7 | 0.00 | 1.55 | 1.19 | 96 | 1009.7 |
| 20260506181047 | 8 | 360 | 0.0 | 8.0 | 0.00 | 1.55 | 1.19 | 96 | 1009.7 |
| 20260506180544 | 8 | 0 | 0.0 | 6.4 | 0.00 | 1.52 | 1.17 | 96 | 1009.6 |
| 20260506180058 | 8 | 0 | 0.0 | 6.4 | 0.00 | 1.52 | 1.17 | 96 | 1009.4 |
| 20260506175545 | 8 | 0 | 0.0 | 4.8 | 0.00 | 1.52 | 1.17 | 96 | 1009.5 |
| 20260506175045 | 8 | 0 | 0.0 | 4.8 | 0.00 | 1.52 | 1.17 | 96 | 1009.4 |
| 20260506174555 | 8 | 0 | 0.0 | 0.0 | 0.00 | 1.52 | 1.17 | 96 | 1009.5 |
| 20260506174045 | 8 | 0 | 0.0 | 0.0 | 0.00 | 1.52 | 1.17 | 96 | 1009.4 |
| 20260506173547 | 8 | 0 | 0.0 | 0.0 | 0.00 | 1.52 | 1.17 | 96 | 1009.4 |
| 20260506173103 | 8 | 0 | 0.0 | 0.0 | 0.00 | 1.52 | 1.17 | 96 | 1009.3 |
| 20260506172549 | 8 | 0 | 0.0 | 9.7 | 0.00 | 1.52 | 1.17 | 96 | 1009.3 |
| 20260506172046 | 8 | 0 | 0.0 | 9.7 | 0.00 | 1.52 | 1.17 | 96 | 1009.3 |
| 20260506171557 | 8 | 0 | 0.0 | 1.6 | 0.00 | 1.52 | 1.17 | 96 | 1009.2 |
| 20260506171050 | 8 | 0 | 0.0 | 1.6 | 0.00 | 1.52 | 1.17 | 96 | 1009.1 |
| 20260506170545 | 8 | 0 | 0.0 | 0.0 | 0.00 | 1.52 | 1.17 | 96 | 1009.1 |
| 20260506170109 | 8 | 0 | 0.0 | 9.7 | 0.00 | 1.52 | 1.17 | 96 | 1009.0 |
| 20260506165548 | 8 | 0 | 0.0 | 9.7 | 0.00 | 1.52 | 1.17 | 96 | 1009.0 |
| 20260506165048 | 8 | 0 | 0.0 | 6.4 | 0.00 | 1.52 | 1.17 | 96 | 1009.0 |
| 20260506164555 | 8 | 0 | 0.0 | 4.8 | 0.00 | 1.52 | 1.17 | 96 | 1009.0 |
| 20260506164046 | 8 | 0 | 0.0 | 0.0 | 0.00 | 1.52 | 1.17 | 96 | 1009.0 |
| 20260506163545 | 8 | 0 | 0.0 | 0.0 | 0.00 | 1.52 | 1.17 | 96 | 1008.9 |
| 20260506163109 | 8 | 0 | 0.0 | 0.0 | 0.00 | 1.52 | 1.17 | 96 | 1008.9 |
| 20260506162545 | 8 | 0 | 0.0 | 0.0 | 0.00 | 1.52 | 1.17 | 96 | 1008.9 |
| 20260506162045 | 8 | 0 | 0.0 | 0.0 | 0.00 | 1.52 | 1.17 | 96 | 1008.8 |
| 20260506161551 | 8 | 0 | 0.0 | 0.0 | 0.00 | 1.50 | 1.14 | 96 | 1008.9 |
| 20260506161045 | 8 | 0 | 0.0 | 0.0 | 0.00 | 1.50 | 1.14 | 96 | 1008.9 |
| 20260506160545 | 8 | 0 | 0.0 | 0.0 | 0.00 | 1.50 | 1.14 | 96 | 1008.8 |
| 20260506160053 | 8 | 0 | 0.0 | 0.0 | 0.00 | 1.50 | 1.14 | 97 | 1008.8 |
| 20260506155545 | 8 | 0 | 0.0 | 0.0 | 0.00 | 1.50 | 1.14 | 97 | 1008.9 |
| 20260506155048 | 8 | 0 | 0.0 | 0.0 | 0.00 | 1.50 | 1.14 | 97 | 1008.9 |
| 20260506154553 | 8 | 0 | 0.0 | 0.0 | 0.00 | 1.50 | 1.14 | 96 | 1008.8 |
| 20260506154046 | 8 | 0 | 0.0 | 0.0 | 0.03 | 1.50 | 1.14 | 96 | 1008.9 |
| 20260506153546 | 8 | 0 | 0.0 | 0.0 | 0.03 | 1.50 | 1.14 | 97 | 1008.8 |
| 20260506153055 | 8 | 0 | 0.0 | 0.0 | 0.03 | 1.50 | 1.14 | 97 | 1008.8 |
| 20260506152545 | 8 | 0 | 0.0 | 0.0 | 0.03 | 1.50 | 1.14 | 97 | 1008.8 |
| 20260506152046 | 8 | 0 | 0.0 | 0.0 | 0.03 | 1.50 | 1.14 | 97 | 1008.7 |
| 20260506151556 | 8 | 0 | 0.0 | 0.0 | 0.03 | 1.50 | 1.12 | 96 | 1008.8 |
| 20260506151048 | 8 | 0 | 0.0 | 8.0 | 0.03 | 1.50 | 1.12 | 97 | 1008.8 |
| 20260506150545 | 8 | 0 | 0.0 | 8.0 | 0.03 | 1.50 | 1.12 | 97 | 1008.8 |
| 20260506150051 | 8 | 0 | 0.0 | 8.0 | 0.05 | 1.50 | 1.12 | 97 | 1008.8 |
| 20260506145546 | 8 | 0 | 0.0 | 3.2 | 0.05 | 1.50 | 1.12 | 97 | 1008.6 |
| 20260506145049 | 8 | 0 | 0.0 | 0.0 | 0.08 | 1.50 | 1.12 | 97 | 1008.6 |
| 20260506144601 | 8 | 0 | 0.0 | 0.0 | 0.08 | 1.50 | 1.12 | 97 | 1008.6 |
| 20260506144042 | 8 | 0 | 0.0 | 6.4 | 0.05 | 1.47 | 1.12 | 97 | 1008.6 |
| 20260506143547 | 8 | 0 | 0.0 | 8.0 | 0.08 | 1.47 | 1.12 | 97 | 1008.7 |
| 20260506143049 | 8 | 355 | 0.0 | 8.0 | 0.08 | 1.47 | 1.12 | 97 | 1008.6 |
| 20260506142545 | 8 | 0 | 0.0 | 6.4 | 0.08 | 1.47 | 1.12 | 97 | 1008.6 |
| 20260506142045 | 8 | 0 | 0.0 | 4.8 | 0.08 | 1.47 | 1.12 | 97 | 1008.6 |
| 20260506141556 | 8 | 0 | 0.0 | 4.8 | 0.08 | 1.45 | 1.09 | 96 | 1008.6 |
| 20260506141046 | 8 | 0 | 0.0 | 8.0 | 0.08 | 1.45 | 1.09 | 96 | 1008.6 |
| 20260506140549 | 8 | 0 | 0.0 | 8.0 | 0.10 | 1.45 | 1.09 | 96 | 1008.5 |
| 20260506140052 | 8 | 0 | 0.0 | 3.2 | 0.08 | 1.42 | 1.07 | 96 | 1008.5 |
| 20260506135545 | 8 | 341 | 0.0 | 1.6 | 0.08 | 1.42 | 1.07 | 97 | 1008.5 |
| 20260506135045 | 7 | 0 | 0.0 | 9.7 | 0.08 | 1.40 | 1.04 | 96 | 1008.5 |
| 20260506134550 | 7 | 0 | 0.0 | 9.7 | 0.08 | 1.40 | 1.04 | 96 | 1008.5 |
| 20260506134046 | 8 | 0 | 0.0 | 3.2 | 0.10 | 1.40 | 1.04 | 97 | 1008.6 |
| 20260506133545 | 8 | 0 | 0.0 | 8.0 | 0.08 | 1.40 | 1.02 | 97 | 1008.5 |
| 20260506133052 | 8 | 0 | 0.0 | 8.0 | 0.08 | 1.37 | 1.02 | 97 | 1008.5 |
| 20260506132545 | 8 | 0 | 0.0 | 3.2 | 0.08 | 1.37 | 1.02 | 97 | 1008.4 |
| 20260506132047 | 7 | 0 | 0.0 | 4.8 | 0.08 | 1.37 | 1.02 | 97 | 1008.5 |
| 20260506131547 | 7 | 0 | 0.0 | 4.8 | 0.08 | 1.35 | 0.99 | 97 | 1008.5 |
| 20260506131045 | 7 | 0 | 0.0 | 6.4 | 0.08 | 1.35 | 0.99 | 97 | 1008.3 |
| 20260506130542 | 7 | 0 | 0.0 | 8.0 | 0.05 | 1.32 | 0.97 | 97 | 1008.3 |
| 20260506130058 | 7 | 0 | 0.0 | 8.0 | 0.05 | 1.32 | 0.97 | 97 | 1008.4 |
| 20260506125550 | 7 | 0 | 0.0 | 6.4 | 0.08 | 1.32 | 0.97 | 97 | 1008.2 |
| 20260506125045 | 7 | 0 | 0.0 | 0.0 | 0.05 | 1.30 | 0.94 | 97 | 1008.3 |
| 20260506124549 | 7 | 0 | 0.0 | 1.6 | 0.05 | 1.30 | 0.94 | 97 | 1008.3 |
| 20260506124042 | 7 | 0 | 0.0 | 8.0 | 0.03 | 1.30 | 0.94 | 97 | 1008.2 |
| 20260506123545 | 8 | 0 | 0.0 | 8.0 | 0.03 | 1.30 | 0.94 | 97 | 1008.3 |
| 20260506123049 | 8 | 0 | 0.0 | 4.8 | 0.03 | 1.30 | 0.94 | 97 | 1008.3 |
| 20260506122546 | 8 | 0 | 0.0 | 9.7 | 0.03 | 1.30 | 0.94 | 97 | 1008.2 |
| 20260506122045 | 8 | 0 | 0.0 | 9.7 | 0.00 | 1.27 | 0.91 | 97 | 1008.1 |
| 20260506121549 | 8 | 0 | 0.0 | 4.8 | 0.03 | 1.27 | 0.91 | 97 | 1008.2 |
| 20260506121045 | 8 | 0 | 0.0 | 9.7 | 0.03 | 1.27 | 0.91 | 97 | 1008.1 |
| 20260506120545 | 8 | 0 | 1.6 | 9.7 | 0.03 | 1.27 | 0.91 | 97 | 1008.1 |
| 20260506120055 | 8 | 0 | 0.0 | 4.8 | 0.03 | 1.27 | 0.91 | 97 | 1008.0 |
| 20260506115545 | 8 | 0 | 0.0 | 6.4 | 0.00 | 1.24 | 0.89 | 97 | 1008.0 |
| 20260506115045 | 8 | 0 | 0.0 | 6.4 | 0.00 | 1.24 | 0.89 | 97 | 1007.9 |
| 20260506114555 | 8 | 0 | 0.0 | 6.4 | 0.00 | 1.24 | 0.89 | 97 | 1007.9 |
| 20260506114045 | 8 | 0 | 0.0 | 8.0 | 0.00 | 1.24 | 0.89 | 97 | 1007.8 |
| 20260506113546 | 8 | 5 | 0.0 | 8.0 | 0.00 | 1.24 | 0.89 | 97 | 1007.8 |
| 20260506113055 | 8 | 0 | 0.0 | 1.6 | 0.00 | 1.24 | 0.89 | 97 | 1007.9 |
| 20260506112546 | 8 | 0 | 0.0 | 8.0 | 0.00 | 1.24 | 0.89 | 97 | 1007.8 |
| 20260506112045 | 8 | 0 | 0.0 | 9.7 | 0.00 | 1.24 | 0.89 | 97 | 1007.9 |
| 20260506111550 | 8 | 0 | 0.0 | 9.7 | 0.00 | 1.22 | 0.86 | 97 | 1007.8 |
| 20260506111045 | 8 | 0 | 0.0 | 9.7 | 0.00 | 1.22 | 0.86 | 97 | 1007.8 |
| 20260506110548 | 8 | 0 | 0.0 | 6.4 | 0.00 | 1.22 | 0.86 | 97 | 1007.7 |
| 20260506110055 | 8 | 0 | 0.0 | 6.4 | 0.00 | 1.22 | 0.86 | 97 | 1007.7 |
| 20260506105545 | 8 | 0 | 0.0 | 8.0 | 0.03 | 1.32 | 0.86 | 97 | 1007.7 |
| 20260506105046 | 8 | 0 | 0.0 | 8.0 | 0.03 | 1.32 | 0.86 | 97 | 1007.7 |
| 20260506104550 | 8 | 0 | 0.0 | 6.4 | 0.05 | 1.32 | 0.86 | 97 | 1007.6 |
| 20260506104045 | 8 | 0 | 0.0 | 6.4 | 0.05 | 1.32 | 0.86 | 97 | 1007.5 |
| 20260506103547 | 8 | 0 | 0.0 | 6.4 | 0.08 | 1.32 | 0.86 | 97 | 1007.5 |
| 20260506103054 | 8 | 0 | 0.0 | 11.3 | 0.08 | 1.32 | 0.86 | 97 | 1007.6 |
| 20260506102546 | 8 | 0 | 0.0 | 11.3 | 0.08 | 1.32 | 0.86 | 97 | 1007.5 |
| 20260506102046 | 8 | 0 | 0.0 | 4.8 | 0.08 | 1.32 | 0.86 | 97 | 1007.5 |
| 20260506101552 | 8 | 0 | 0.0 | 4.8 | 0.08 | 1.30 | 0.84 | 97 | 1007.4 |
| 20260506101045 | 8 | 0 | 0.0 | 6.4 | 0.08 | 1.30 | 0.84 | 97 | 1007.5 |
| 20260506100545 | 8 | 0 | 0.0 | 6.4 | 0.08 | 1.30 | 0.84 | 97 | 1007.3 |
| 20260506100050 | 8 | 323 | 0.0 | 4.8 | 0.05 | 1.30 | 0.84 | 97 | 1007.3 |
| 20260506095546 | 8 | 0 | 0.0 | 0.0 | 0.05 | 1.40 | 0.84 | 97 | 1007.3 |
| 20260506095046 | 8 | 0 | 0.0 | 8.0 | 0.05 | 1.40 | 0.84 | 97 | 1007.2 |
| 20260506094554 | 8 | 0 | 0.0 | 8.0 | 0.03 | 1.40 | 0.81 | 97 | 1007.3 |
| 20260506094046 | 8 | 0 | 0.0 | 8.0 | 0.05 | 1.40 | 0.81 | 97 | 1007.2 |
| 20260506093545 | 8 | 0 | 0.0 | 4.8 | 0.03 | 1.37 | 0.79 | 97 | 1007.2 |
| 20260506093051 | 8 | 0 | 0.0 | 8.0 | 0.00 | 1.35 | 0.76 | 97 | 1007.1 |
| 20260506092542 | 8 | 0 | 0.0 | 9.7 | 0.00 | 1.35 | 0.76 | 97 | 1007.1 |
| 20260506092045 | 8 | 0 | 0.0 | 9.7 | 0.00 | 1.35 | 0.76 | 97 | 1006.9 |
| 20260506091550 | 8 | 0 | 0.0 | 9.7 | 0.00 | 1.35 | 0.76 | 97 | 1006.9 |
| 20260506091045 | 8 | 0 | 0.0 | 9.7 | 0.00 | 1.35 | 0.76 | 97 | 1006.8 |
| 20260506090541 | 8 | 0 | 0.0 | 14.5 | 0.00 | 1.35 | 0.76 | 97 | 1006.8 |
| 20260506090056 | 8 | 0 | 1.6 | 14.5 | 0.00 | 1.35 | 0.76 | 97 | 1006.7 |
| 20260506085545 | 9 | 360 | 0.0 | 12.9 | 0.00 | 1.35 | 0.76 | 97 | 1006.7 |
| 20260506085045 | 8 | 0 | 0.0 | 9.7 | 0.00 | 1.35 | 0.76 | 97 | 1006.7 |
| 20260506084612 | 8 | 0 | 0.0 | 9.7 | 0.00 | 1.35 | 0.76 | 97 | 1006.7 |
| 20260506084045 | 8 | 0 | 0.0 | 4.8 | 0.00 | 1.32 | 0.74 | 97 | 1006.7 |
| 20260506083546 | 8 | 0 | 0.0 | 4.8 | 0.00 | 1.32 | 0.74 | 97 | 1006.7 |
| 20260506083051 | 9 | 0 | 0.0 | 4.8 | 0.00 | 1.32 | 0.74 | 97 | 1006.5 |
| 20260506082545 | 8 | 0 | 0.0 | 0.0 | 0.00 | 1.32 | 0.74 | 97 | 1006.6 |
| 20260506082045 | 8 | 0 | 0.0 | 0.0 | 0.00 | 1.32 | 0.74 | 97 | 1006.6 |
| 20260506081551 | 9 | 0 | 0.0 | 0.0 | 0.00 | 1.32 | 0.74 | 97 | 1006.5 |
| 20260506081045 | 9 | 0 | 0.0 | 4.8 | 0.00 | 1.32 | 0.74 | 97 | 1006.5 |
| 20260506080542 | 9 | 0 | 0.0 | 4.8 | 0.00 | 1.32 | 0.74 | 97 | 1006.5 |
| 20260506073058 | 9 | 0 | 0.0 | 3.2 | 0.00 | 1.32 | 0.74 | 97 | 1006.4 |
| 20260506072542 | 9 | 0 | 0.0 | 6.4 | 0.00 | 1.32 | 0.74 | 97 | 1006.3 |
| 20260506072045 | 9 | 0 | 0.0 | 6.4 | 0.03 | 1.32 | 0.74 | 97 | 1006.4 |
| 20260506071554 | 9 | 0 | 0.0 | 6.4 | 0.00 | 1.30 | 0.74 | 97 | 1006.3 |
| 20260506071041 | 9 | 0 | 0.0 | 3.2 | 0.00 | 1.30 | 0.74 | 97 | 1006.3 |
| 20260506070547 | 9 | 0 | 0.0 | 0.0 | 0.00 | 1.30 | 0.74 | 97 | 1006.4 |